Location: LDNL
(36.4545°S, 141.6685°E)
Time: 13:29:01
(UTC+11:00)

Courier 1B Rocket - Pass Details

Date: 05 February 2023
Orbit: 920 x 1202 km, 28.2° (Epoch: 25 March)

Event Time Altitude Azimuth Distance (km) Brightness Sun altitude
Rises 11:45:31 0° 280° (W) 4,070 8.0 56.2°
Reaches altitude 10° 11:50:33 10° 307° (NW) 3,054 7.6 57.1°
Maximum altitude 11:53:20 12° 329° (NNW) 2,846 7.6 57.5°
Drops below altitude 10° 11:56:04 10° 351° (N) 2,979 7.9 58.0°
Sets 12:00:50 0° 19° (NNE) 3,858 8.5 58.8°
